sat.trackr.live / text

‹ back to catalog

QIANFAN-5

NORAD 60383 · 2024-140E

PAYLOAD ACTIVE UNKNOWN

§ Identity

Operator
Country
PRC
Launch date
2024-08-06
Launch site
TAISC
Launch vehicle
Mass (kg)
RCS (m²)

External: N2YO · Heavens-Above · Gunter

§ Orbital elements

Epoch: 2026-09-22T22:24:33.233472Z

Period
106.59 min
Inclination
88.9642°
Eccentricity
0.0017218
Mean motion
13.51031469 rev/d
Perigee alt
1,055.6 km
Apogee alt
1,081.3 km
Semi-major
7,446.6 km
B*
5.7202e-5
RAAN
269.7077°
Arg perigee
107.8998°
Mean anomaly
252.4032°
Rev number
10,567

§ Raw data

QIANFAN-51 60383U 24140E   26265.93371798  .00000049  00000+0  57202-4 0  99912 60383  88.9642 269.7077 0017218 107.8998 252.4032 13.51031469105678

JSON: /api/v1/satellites/60383 · /tle

For live sub-satellite position, see the globe view (requires WebGL).

§ Visibility from observer

Set your observer location to see the next 7 days of passes ≥ 10°. The values pass through the URL so the page stays shareable.

No JS? Fill the form by hand. The geolocation button needs JavaScript.